Starlink 32664

operational
NORAD ID: 62204 Int'l Des: 2024-229 Owner: SPXS Country: US Constellation: starlink
LEOCIRCULAR

Starlink 32664について

説明を読み込み中...

リアルタイム位置

3D地球を読み込み中...

次回通過

高度履歴

Altitude vs Time

uPlot chart will show altitude changes over time

軌道要素

1 62204U 24229N 25304.25046288 .00048976 00000-0 17750-2 0 9998
2 62204 43.0012 281.8605 0001220 263.1764 96.8949 15.27627258 50768
Epoch: Oct 31, 2025 • Age: 8 hours

現在のステータス

高度 482.3 km
速度 7.63 km/s
衛星直下点 15.60°N, 47.83°E
打ち上げ日 Dec 4, 2024
運用期間 0.9 years
タイプ internet

技術仕様

分類 Payload
質量 730.00 kg
乾燥質量 700.00 kg
総質量 730.00 kg
長さ 0.30 m
直径 4.10 m
スパン 29.00 m
形状 Box + pan
製造者 SPXS
バスタイプ Starlink V2M
フェーズステータス In Orbit
所有者/国 SPXS/US

大規模コンステレーション

Loading constellations...